DELTON-WX Weather Reports


time (UTC)temp
F
wind
direction
speed
knots
gust
knots
rain 1hr
in
rain 24hr
in
rain mn
in
humidity
%
barometer
mb
20260509021546 51 209 3.5 0.0 0.00 0.00 0.00 39 975.0
20260509020115 51 220 2.6 0.0 0.00 0.00 0.00 39 975.0
20260509014545 51 254 2.6 0.0 0.00 0.00 0.00 42 974.5
20260509013100 52 283 2.6 0.0 0.00 0.00 0.00 42 974.5
20260509011545 52 301 3.5 0.0 0.00 0.00 0.00 42 974.5
20260509010112 53 306 3.5 0.0 0.00 0.00 0.00 42 974.5
20260509004544 53 300 3.5 0.0 0.00 0.00 0.00 35 974.2
20260509003103 55 278 3.5 0.0 0.00 0.00 0.00 35 975.5
20260509001544 56 291 3.5 0.0 0.00 0.00 0.00 35 975.5
20260509000123 57 291 4.3 0.0 0.00 0.00 0.00 35 975.5
20260508234545 58 287 6.1 0.0 0.00 0.00 0.00 25 974.8
20260508233105 59 283 7.0 0.0 0.00 0.00 0.00 21 975.4
20260508231547 59 268 7.0 0.0 0.00 0.00 0.00 21 975.3
20260508230111 60 267 7.8 0.0 0.00 0.00 0.00 21 975.3
20260508224546 60 270 8.7 0.0 0.00 0.00 0.00 24 975.3
20260508223105 60 275 8.7 0.0 0.00 0.00 0.00 21 976.3
20260508221548 61 274 8.7 0.0 0.00 0.00 0.00 21 976.3
20260508220112 61 271 8.7 0.0 0.00 0.00 0.00 21 976.3
20260508214547 61 271 8.7 0.0 0.00 0.00 0.00 23 976.6
20260508213104 61 270 9.6 0.0 0.00 0.00 0.00 29 976.2
20260508211547 62 259 9.6 0.0 0.00 0.00 0.00 29 976.1
20260508210116 62 260 9.6 0.0 0.00 0.00 0.00 29 976.1
20260508204547 62 263 10.4 0.0 0.00 0.00 0.00 34 976.5
20260508203105 62 264 10.4 0.0 0.00 0.00 0.00 29 976.2
20260508201547 62 249 9.6 0.0 0.00 0.00 0.00 29 976.2
20260508200113 62 247 9.6 0.0 0.00 0.00 0.00 29 976.2
20260508194547 62 249 8.7 0.0 0.00 0.00 0.00 25 976.4
20260508193102 62 251 8.7 0.0 0.00 0.00 0.00 25 976.4
20260508191546 62 251 8.7 0.0 0.00 0.00 0.00 25 976.4
20260508190110 62 251 8.7 0.0 0.00 0.00 0.00 25 976.4
20260508184547 62 249 9.6 0.0 0.00 0.00 0.00 33 977.1
20260508183106 61 247 8.7 0.0 0.00 0.00 0.00 34 976.6
20260508181547 61 247 8.7 0.0 0.00 0.00 0.00 34 976.7
20260508180117 61 249 9.6 0.0 0.00 0.00 0.00 34 976.7
20260508174547 60 250 9.6 0.0 0.00 0.00 0.00 32 977.7
20260508173106 60 252 9.6 0.0 0.00 0.00 0.00 32 977.8
20260508171547 60 252 9.6 0.0 0.00 0.00 0.00 32 977.8
20260508170112 60 252 9.6 0.0 0.00 0.00 0.00 32 977.8
20260508164546 59 250 8.7 0.0 0.00 0.00 0.00 36 977.6
20260508163105 59 241 7.8 0.0 0.00 0.00 0.00 36 978.1
20260508161547 57 238 6.1 0.0 0.00 0.00 0.00 36 978.0
20260508160117 57 235 6.1 0.0 0.00 0.00 0.00 36 978.0
20260508154547 56 223 4.3 0.0 0.00 0.00 0.00 47 978.8
20260508153107 55 219 4.3 0.0 0.00 0.00 0.00 52 978.0
20260508151547 54 211 4.3 0.0 0.00 0.00 0.00 52 978.0
20260508150117 53 211 4.3 0.0 0.00 0.00 0.00 52 978.0
20260508144547 52 208 3.5 0.0 0.00 0.00 0.00 64 978.1
20260508143105 52 199 3.5 0.0 0.00 0.00 0.00 56 978.2
20260508141548 51 195 3.5 0.0 0.00 0.00 0.00 56 978.2
20260508140125 50 186 3.5 0.0 0.00 0.00 0.00 60 978.0
20260508134547 50 180 2.6 0.0 0.00 0.00 0.00 71 977.9
20260508133102 47 180 4.3 0.0 0.00 0.00 0.00 71 977.9
20260508131547 46 185 4.3 0.0 0.00 0.00 0.00 71 977.9
20260508130120 45 180 3.5 0.0 0.00 0.00 0.00 71 977.9
20260508124548 44 183 3.5 0.0 0.00 0.00 0.00 89 976.9
20260508123106 43 184 5.2 0.0 0.00 0.00 0.00 88 977.7
20260508121547 41 180 4.3 0.0 0.00 0.00 0.00 88 977.7
20260508120130 40 172 2.6 0.0 0.00 0.00 0.00 88 977.7
20260508114547 38 171 1.7 0.0 0.00 0.00 0.00 90 977.0
20260508113108 37 172 2.6 0.0 0.00 0.00 0.00 89 977.7
20260508111546 37 164 2.6 0.0 0.00 0.00 0.00 89 977.8
20260508110113 36 167 3.5 0.0 0.00 0.00 0.00 89 977.8
20260508104549 36 173 4.3 0.0 0.00 0.00 0.00 82 976.8
20260508103107 37 161 4.3 0.0 0.00 0.00 0.00 82 977.9
20260508101550 37 170 3.5 0.0 0.00 0.00 0.00 82 977.9
20260508100114 37 164 2.6 0.0 0.00 0.00 0.00 82 977.9
20260508094548 37 155 2.6 0.0 0.00 0.00 0.00 82 977.1
20260508093102 38 143 1.7 0.0 0.00 0.00 0.00 77 977.8
20260508091549 38 180 1.7 0.0 0.00 0.00 0.00 77 977.8
20260508090117 39 180 1.7 0.0 0.00 0.00 0.00 77 977.8
20260508084549 39 187 0.9 0.0 0.00 0.00 0.00 77 977.3
20260508083107 39 183 2.6 0.0 0.00 0.00 0.00 82 977.3
20260508081548 39 207 3.5 0.0 0.00 0.00 0.00 82 977.3
20260508080119 39 210 3.5 0.0 0.00 0.00 0.00 82 977.3
20260508074549 39 221 3.5 0.0 0.00 0.00 0.00 87 978.1
20260508073108 39 233 3.5 0.0 0.00 0.00 0.00 87 978.1
20260508071548 39 209 3.5 0.0 0.00 0.00 0.00 87 978.1
20260508070119 40 207 3.5 0.0 0.00 0.00 0.00 87 978.1
20260508064548 40 207 2.6 0.0 0.00 0.00 0.00 84 977.7
20260508063104 40 207 1.7 0.0 0.00 0.00 0.00 81 978.1
20260508061548 40 192 2.6 0.0 0.00 0.00 0.00 81 978.1
20260508060133 41 176 2.6 0.0 0.00 0.00 0.00 81 978.1
20260508054547 41 174 3.5 0.0 0.00 0.00 0.00 78 978.8
20260508053107 41 177 3.5 0.0 0.00 0.00 0.00 83 978.7
20260508051546 41 183 3.5 0.0 0.00 0.00 0.00 83 978.7
20260508050120 41 183 3.5 0.0 0.00 0.00 0.00 83 978.7
20260508044546 41 185 3.5 0.0 0.00 0.00 0.00 78 978.8
20260508043103 42 200 3.5 0.0 0.00 0.00 0.00 78 978.2
20260508041547 42 190 4.3 0.0 0.00 0.00 0.00 78 978.2
20260508040129 42 188 3.5 0.0 0.00 0.00 0.00 78 978.2
20260508034545 42 184 2.6 0.0 0.00 0.00 0.00 75 978.1
20260508033102 43 155 2.6 0.0 0.00 0.00 0.00 79 978.8
20260508031546 44 196 2.6 0.0 0.00 0.00 0.00 79 978.8
20260508030116 44 205 3.5 0.0 0.00 0.00 0.00 79 978.8
20260508024545 44 198 3.5 0.0 0.00 0.00 0.00 76 978.2
20260508023105 44 207 5.2 0.0 0.00 0.00 0.00 76 978.7